Regional Weather Roundup
Issued by NWS

Home | Current Version | Previous Version | Graphics & Text | Print | Product List | Glossary On
Versions: 1 2 3 4 5 6 7 8 9 10 11 12 13 14 15 16 17 18 19 20 21 22 23 24 25 26 27 28 29 30 31 32 33 34 35 36 37 38 39 40 41 42 43 44 45 46 47 48 49 50
000
ASUS43 KDMX 271707
RWRIA

WEATHER ROUNDUP FOR IOWA
NATIONAL WEATHER SERVICE DES MOINES IA
1200 PM CDT WED AUG 27 2014

NOTE: "FAIR" INDICATES FEW OR NO CLOUDS BELOW 12,000 FEET WITH NO
SIGNIFICANT WEATHER AND/OR OBSTRUCTIONS TO VISIBILITY.

* - THESE STATIONS ARE NOT NWS STATIONS...THUS NOT UNDER NWS
QUALITY CONTROL.  THEY ALSO DO NOT REPORT WEATHER SUCH
AS PRECIPITATION OR FOG.

IAZ001>003-012>014-020>022-031>034-043>046-271800-
   NORTHWEST IOWA

CITY           SKY/WX    TMP DP  RH WIND       PRES   REMARKS
CARROLL *      CLOUDY    66  66 100 CALM      30.20S
CHEROKEE *     CLOUDY    66  63  88 SE5       30.20F
DENISON *      LGT RAIN  66  66 100 E9        30.16F
LE MARS *      CLOUDY    66  61  82 E7        30.19F
ORANGE CITY *  CLOUDY    66  57  72 SE5       30.19F
SHELDON *      SUNNY     66  61  82 SE8       30.19F
SIOUX CITY     LGT RAIN  66  64  93 E9        30.16F
SPENCER        CLOUDY    67  59  75 SE7       30.21F
STORM LAKE *   PTSUNNY   66  64  94 E7        30.21S
$$

IAZ055>058-069>071-079>083-090>094-271800-
   SOUTHWEST IOWA

CITY           SKY/WX    TMP DP  RH WIND       PRES   REMARKS
ATLANTIC *     HVY RAIN  68  66  94 CALM      30.20S
AUDUBON *      RAIN      70  66  88 CALM      30.21F
CLARINDA *     LGT RAIN  70  70 100 CALM      30.19F
COUNCIL BLFS * LGT RAIN  68  68 100 SE8       30.17F
CRESTON *      CLOUDY    70  68  94 SW7       30.22R
HARLAN  *      RAIN      66  66 100 CALM      30.22F
LAMONI         CLOUDY    71  67  87 W5        30.18R
RED OAK *      CLOUDY    68  68 100 S7        30.19S FOG
SHENANDOAH *   HVY RAIN  70  68  94 NE5       30.20R VSB 3/4
$$

IAZ047>049-059>061-072>074-084-271800-
   CENTRAL IOWA

CITY           SKY/WX    TMP DP  RH WIND       PRES   REMARKS
AMES           CLOUDY    72  65  78 SE3       30.19R
ANKENY *       MOSUNNY   73  66  78 E5        30.18S
CHARITON *     MOSUNNY   72  68  88 E6        30.17S
DES MOINES     CLOUDY    74  65  73 SE6       30.18R
GRINNELL*      CLOUDY    72  64  78 E5        30.20S
KNOXVILLE *    MOSUNNY   72  64  78 SE8       30.17R
MARSHALLTOWN   CLOUDY    72  62  71 SE8       30.19S
PELLA *        CLOUDY    73  66  78 SE5       30.19S
PERRY *        CLOUDY    72  64  78 SE3       30.19S
$$

IAZ004>006-015-016-023>025-035-036-271800-
   NORTH CENTRAL IOWA

CITY           SKY/WX    TMP DP  RH WIND       PRES   REMARKS
ALGONA *       SUNNY     70  61  73 VRB5      30.21F
CLARION *      SUNNY     70  59  68 SE8       30.21S
ESTHERVILLE    CLOUDY    66  59  78 E6        30.21F
FORT DODGE *   CLOUDY    70  61  73 E5        30.22R
MASON CITY     CLOUDY    70  57  63 E7        30.22F
FOREST CITY *  SUNNY     70  55  60 SE7       30.21F
IOWA FALLS *   PTSUNNY   72  59  64 E3        30.21S
$$

IAZ007>011-017>019-026>030-037>042-050>054-066-271800-
   NORTHEAST IOWA

CITY           SKY/WX    TMP DP  RH WIND       PRES   REMARKS
CEDAR RAPIDS   CLOUDY    71  62  73 S6        30.19R
CHARLES CITY * SUNNY     72  57  60 NE7       30.21F
CLINTON *      PTSUNNY   75  63  64 NE3       30.20R
DUBUQUE        MOSUNNY   73  58  59 NE6       30.20S
MONTICELLO *   PTSUNNY   73  63  68 CALM      30.19R
OELWEIN *      SUNNY     72  59  64 E6        30.21S
WATERLOO       PTSUNNY   73  56  54 E7        30.18F
$$

IAZ064-065-067-068-078-271800-
   EAST CENTRAL IOWA

CITY           SKY/WX    TMP DP  RH WIND       PRES   REMARKS
DAVENPORT      CLOUDY    74  62  66 E3        30.18R
IOWA CITY      CLOUDY    73  62  68 CALM      30.20R
MT. PLEASANT * CLOUDY    75  64  69 CALM      30.18F
MUSCATINE *    MOSUNNY   77  64  65 S3        30.18R
QUAD CITIES    CLOUDY    77  63  61 NE5       30.16R
$$

IAZ062-063-075>077-085>089-095>099-271800-
   SOUTHEAST IOWA

CITY           SKY/WX    TMP DP  RH WIND       PRES   REMARKS
BURLINGTON     CLOUDY    77  70  79 NW5       30.17R
FAIRFIELD *    DRIZZLE   70  66  88 NE5       30.18F
FORT MADISON * SUNNY     75  70  83 N5        30.18S
KEOKUK *       LGT RAIN  73  72  94 N3        30.16S
OSKALOOSA *      N/A     68  66  94 E8        30.18F
CENTERVILLE *  CLOUDY    68  68 100 E6        30.18S
OTTUMWA        LGT RAIN  68  66  93 E7        30.16F
WASHINGTON *   PTSUNNY   72  66  83 CALM      30.19R
$$

ABBREVIATIONS USED IN REMARKS
   TC - TEMPERATURES IN CELSIUS
  WCI - WIND CHILL INDEX
   HX - HEAT INDEX
  VSB - VISIBILITY
$$




USA.gov is the U.S. government's official web portal to all federal, state and local government web resources and services.